Location: Carrizal
(9.8472°N, 67.3428°W)
Time: 05:29:40
(UTC+00:00)

IGS 5A - Pass Details

Date: 13 April 2024
Orbit: 572 x 575 km, 97.4° (Epoch: 06 April)

Event Time Altitude Azimuth Distance (km) Brightness Sun altitude
Rises 23:08:52 0° 166° (SSE) 2,772 6.6 -7.9°
Reaches altitude 10° 23:11:01 10° 164° (SSE) 1,874 5.8 -8.4°
Maximum altitude 23:15:04 76° 80° (E) 593 3.3 -9.4°
Drops below altitude 10° 23:19:07 10° 353° (N) 1,871 6.3 -10.4°
Sets 23:21:15 0° 352° (N) 2,767 7.2 -10.9°
